START_TIME,STEP,MOV.,M29,t_acc.,H22,t_acc.,H26,t_acc.,H30,t_acc.
1981-08-30 21:01:13.200 ,0,0,,0,,0,,0,,0
1981-08-30 21:01:20.400 ,0,0,0.,24.0,0.,24.0,0.,24.0,0.,24.0
1981-08-30 21:01:44.400 ,5,1,0.,24.0,0.,24.0,0.,24.0,0.,24.0
1981-08-30 21:02:08.400 ,5,0,0.,24.0,0.,24.0,0.,24.0,0.,24.0
1981-08-30 21:02:32.400 ,4,1,0.,24.0,0.,24.0,0.,24.0,0.,24.0
1981-08-30 21:02:56.400 ,4,0,0.,24.0,0.,24.0,0.,24.0,0.,24.0
1981-08-30 21:03:20.400 ,3,1,0.,24.0,0.,24.0,0.,24.0,0.,24.0
1981-08-30 21:03:44.400 ,3,0,0.,24.0,0.,24.0,0.,24.0,0.,24.0
1981-08-30 21:04:08.400 ,2,1,0.,24.0,0.,24.0,0.,24.0,0.,24.0
1981-08-30 21:04:32.400 ,2,0,0.,24.0,0.,24.0,0.,24.0,0.,24.0
1981-08-30 21:04:56.400 ,1,1,0.,24.0,0.,24.0,0.,24.0,0.,24.0
1981-08-30 21:05:20.400 ,1,0,0.,24.0,0.,24.0,0.,24.0,0.,24.0
1981-08-30 21:05:44.400 ,0,1,0.,24.0,0.,24.0,0.,24.0,0.,24.0
1981-08-30 21:06:08.400 ,0,0,0.,24.0,0.,24.0,0.,24.0,0.,24.0
1981-08-30 21:06:32.400 ,0,1,0.,24.0,0.,24.0,0.,24.0,0.,24.0
1981-08-30 21:06:56.400 ,0,0,0.,24.0,0.,24.0,0.,24.0,0.,24.0
1981-08-30 21:07:20.400 ,1,1,0.,24.0,0.,24.0,0.,24.0,0.,24.0
1981-08-30 21:07:44.400 ,1,0,0.,24.0,0.,24.0,0.,24.0,0.,24.0
1981-08-30 21:08:08.400 ,2,1,0.,24.0,0.,24.0,0.,24.0,0.,24.0
1981-08-30 21:08:32.400 ,2,0,0.,24.0,0.,24.0,0.,24.0,0.,24.0
1981-08-30 21:08:56.400 ,3,1,0.,24.0,0.,24.0,0.,24.0,0.,24.0
1981-08-30 21:09:20.400 ,4,1,0.,24.0,0.,24.0,0.,24.0,0.,24.0
1981-08-30 21:09:44.400 ,5,1,0.,24.0,0.,24.0,0.,24.0,0.,24.0
1981-08-30 21:10:08.400 ,6,1,0.,24.0,0.,24.0,0.,24.0,0.,24.0
1981-08-30 21:10:32.400 ,7,1,0.,24.0,0.,24.0,0.,24.0,0.,24.0
1981-08-30 21:10:56.400 ,7,1,0.,24.0,0.,24.0,0.,24.0,0.,24.0
1981-08-30 21:11:20.400 ,6,1,0.,24.0,0.,24.0,0.,24.0,0.,24.0
1981-08-30 21:11:44.400 ,5,1,0.,24.0,0.,24.0,0.,24.0,0.,24.0
1981-08-30 21:12:08.400 ,4,1,0.,24.0,0.,24.0,0.,24.0,0.,24.0
1981-08-30 21:12:32.400 ,3,1,0.,24.0,0.,24.0,0.,24.0,0.,24.0
1981-08-30 21:12:56.400 ,2,1,0.,24.0,0.,24.0,0.,24.0,0.,24.0
1981-08-30 21:13:20.400 ,1,1,0.,24.0,0.,24.0,0.,24.0,0.,24.0
1981-08-30 21:13:44.400 ,0,1,0.,24.0,0.,24.0,0.,24.0,0.,24.0
1981-08-30 21:14:08.400 ,0,1,0.,24.0,0.,24.0,0.,24.0,0.,24.0
1981-08-30 21:14:32.400 ,1,1,0.,24.0,0.,24.0,0.,24.0,0.,24.0
1981-08-30 21:14:56.400 ,2,1,0.,24.0,0.,24.0,0.,24.0,0.,24.0
1981-08-30 21:15:20.400 ,3,1,0.,24.0,0.,24.0,0.,24.0,0.,24.0
1981-08-30 21:15:44.400 ,3,0,0.,24.0,0.,24.0,0.,24.0,0.,24.0
1981-08-30 21:16:08.400 ,4,1,0.,24.0,0.,24.0,0.,24.0,0.,24.0
1981-08-30 21:16:32.400 ,4,0,0.,24.0,0.,24.0,0.,24.0,0.,24.0
1981-08-30 21:16:56.400 ,5,1,0.,24.0,0.,24.0,0.,24.0,0.,24.0
1981-08-30 21:17:20.400 ,5,0,0.,24.0,0.,24.0,0.,24.0,0.,24.0
1981-08-30 21:17:44.400 ,6,1,0.,24.0,0.,24.0,0.,24.0,0.,24.0
1981-08-30 21:18:08.400 ,6,0,0.,24.0,0.,24.0,0.,24.0,0.,24.0
1981-08-30 21:18:32.400 ,7,1,0.,24.0,0.,24.0,0.,24.0,0.,24.0
1981-08-30 21:18:56.400 ,7,0,0.,24.0,0.,24.0,0.,24.0,0.,24.0
1981-08-30 21:19:20.400 ,7,1,0.,24.0,0.,24.0,0.,24.0,0.,24.0
1981-08-30 21:19:44.400 ,7,0,1.,24.0,0.,24.0,0.,24.0,0.,24.0
1981-08-30 21:20:08.400 ,6,1,0.,24.0,0.,24.0,0.,24.0,0.,24.0
1981-08-30 21:20:32.400 ,6,0,0.,24.0,0.,24.0,0.,24.0,0.,24.0
1981-08-30 21:20:56.400 ,5,1,0.,24.0,0.,24.0,0.,24.0,0.,24.0
1981-08-30 21:21:20.400 ,5,0,0.,24.0,0.,24.0,0.,24.0,0.,24.0
1981-08-30 21:21:44.400 ,4,1,0.,24.0,0.,24.0,0.,24.0,0.,24.0
1981-08-30 21:22:08.400 ,4,0,0.,24.0,0.,24.0,0.,24.0,0.,24.0
1981-08-30 21:22:32.400 ,3,1,0.,24.0,0.,24.0,0.,24.0,0.,24.0
1981-08-30 21:22:56.400 ,3,0,0.,24.0,0.,24.0,0.,24.0,0.,24.0
1981-08-30 21:23:20.400 ,2,1,0.,24.0,0.,24.0,0.,24.0,0.,24.0
1981-08-30 21:23:44.400 ,2,0,0.,24.0,0.,24.0,0.,24.0,0.,24.0
1981-08-30 21:24:08.400 ,1,1,0.,24.0,0.,24.0,0.,24.0,0.,24.0
1981-08-30 21:24:32.400 ,1,0,0.,24.0,0.,24.0,0.,24.0,0.,24.0
1981-08-30 21:24:56.400 ,0,1,0.,24.0,0.,24.0,0.,24.0,0.,24.0
1981-08-30 21:25:20.400 ,0,0,0.,24.0,0.,24.0,0.,24.0,0.,24.0
1981-08-30 21:25:44.400 ,0,1,0.,24.0,0.,24.0,0.,24.0,0.,24.0
1981-08-30 21:26:08.400 ,0,0,0.,24.0,0.,24.0,0.,24.0,0.,24.0
1981-08-30 21:26:32.400 ,1,1,0.,24.0,0.,24.0,0.,24.0,0.,24.0
1981-08-30 21:26:56.400 ,1,0,0.,24.0,0.,24.0,0.,24.0,0.,24.0
1981-08-30 21:27:20.400 ,2,1,0.,24.0,0.,24.0,0.,24.0,0.,24.0
1981-08-30 21:27:44.400 ,2,0,0.,24.0,0.,24.0,0.,24.0,0.,24.0
1981-08-30 21:28:08.400 ,3,1,0.,24.0,0.,24.0,0.,24.0,0.,24.0
1981-08-30 21:28:32.400 ,4,1,0.,24.0,0.,24.0,0.,24.0,0.,24.0
1981-08-30 21:28:56.400 ,5,1,0.,24.0,0.,24.0,0.,24.0,0.,24.0
1981-08-30 21:29:20.400 ,6,1,0.,24.0,0.,24.0,0.,24.0,0.,24.0
1981-08-30 21:29:44.400 ,7,1,0.,24.0,0.,24.0,0.,24.0,0.,24.0
1981-08-30 21:30:08.400 ,7,1,0.,24.0,0.,24.0,0.,24.0,0.,24.0
1981-08-30 21:30:32.400 ,6,1,0.,24.0,0.,24.0,0.,24.0,0.,24.0
1981-08-30 21:30:56.400 ,5,1,0.,24.0,0.,24.0,0.,24.0,0.,24.0
1981-08-30 21:31:20.400 ,4,1,0.,24.0,0.,24.0,0.,24.0,0.,24.0
1981-08-30 21:31:44.400 ,3,1,0.,24.0,0.,24.0,0.,24.0,0.,24.0
1981-08-30 21:32:08.400 ,2,1,1.,24.0,0.,24.0,0.,24.0,0.,24.0
1981-08-30 21:32:32.400 ,1,1,0.,24.0,0.,24.0,0.,24.0,0.,24.0
1981-08-30 21:32:56.400 ,0,1,0.,24.0,0.,24.0,0.,24.0,0.,24.0
1981-08-30 21:33:20.400 ,0,1,0.,24.0,0.,24.0,0.,24.0,0.,24.0
1981-08-30 21:33:44.400 ,1,1,0.,24.0,0.,24.0,0.,24.0,0.,24.0
1981-08-30 21:34:08.400 ,2,1,0.,24.0,0.,24.0,0.,24.0,0.,24.0
1981-08-30 21:34:32.400 ,3,1,0.,24.0,0.,24.0,0.,24.0,0.,24.0
1981-08-30 21:34:56.400 ,3,0,0.,24.0,0.,24.0,0.,24.0,0.,24.0
1981-08-30 21:35:20.400 ,4,1,0.,24.0,0.,24.0,0.,24.0,0.,24.0
1981-08-30 21:35:44.400 ,4,0,0.,24.0,0.,24.0,0.,24.0,0.,24.0
1981-08-30 21:36:08.400 ,5,1,0.,24.0,0.,24.0,0.,24.0,0.,24.0
1981-08-30 21:36:32.400 ,5,0,0.,24.0,0.,24.0,0.,24.0,0.,24.0
1981-08-30 21:36:56.400 ,6,1,0.,24.0,0.,24.0,0.,24.0,0.,24.0
1981-08-30 21:37:20.400 ,6,0,0.,24.0,0.,24.0,0.,24.0,0.,24.0
1981-08-30 21:37:44.400 ,7,1,0.,24.0,0.,24.0,0.,24.0,0.,24.0
1981-08-30 21:38:08.400 ,7,0,0.,24.0,0.,24.0,0.,24.0,0.,24.0
1981-08-30 21:38:32.400 ,7,1,0.,24.0,0.,24.0,0.,24.0,0.,24.0
1981-08-30 21:38:56.400 ,7,0,0.,24.0,0.,24.0,0.,24.0,0.,24.0
1981-08-30 21:39:20.400 ,6,1,0.,24.0,0.,24.0,0.,24.0,0.,24.0
1981-08-30 21:39:44.400 ,6,0,0.,24.0,0.,24.0,0.,24.0,0.,24.0
1981-08-30 21:40:08.400 ,5,1,0.,24.0,0.,24.0,0.,24.0,0.,24.0
1981-08-30 21:40:32.400 ,5,0,0.,24.0,0.,24.0,0.,24.0,0.,24.0
1981-08-30 21:40:56.400 ,4,1,0.,24.0,0.,24.0,0.,24.0,0.,24.0
1981-08-30 21:41:20.400 ,4,0,0.,24.0,0.,24.0,0.,24.0,0.,24.0
1981-08-30 21:41:44.400 ,3,1,0.,24.0,0.,24.0,0.,24.0,0.,24.0
1981-08-30 21:42:08.400 ,3,0,0.,24.0,0.,24.0,0.,24.0,0.,24.0
1981-08-30 21:42:32.400 ,0,0,0.,24.0,0.,24.0,0.,24.0,0.,24.0
1981-08-30 21:42:56.400 ,0,0,0.,24.0,0.,24.0,0.,24.0,0.,24.0
1981-08-30 21:43:20.400 ,1,1,0.,24.0,0.,24.0,0.,24.0,0.,24.0
1981-08-30 21:43:44.400 ,1,0,0.,24.0,0.,24.0,0.,24.0,0.,24.0
1981-08-30 21:44:08.400 ,0,1,0.,24.0,0.,24.0,0.,24.0,0.,24.0
1981-08-30 21:44:32.400 ,0,0,0.,24.0,0.,24.0,0.,24.0,0.,24.0
1981-08-30 21:44:56.400 ,0,1,0.,24.0,0.,24.0,0.,24.0,0.,24.0
1981-08-30 21:45:20.400 ,0,0,0.,24.0,0.,24.0,0.,24.0,0.,24.0
1981-08-30 21:45:44.400 ,1,1,0.,24.0,0.,24.0,0.,24.0,0.,24.0
1981-08-30 21:46:08.400 ,1,0,0.,24.0,0.,24.0,0.,24.0,0.,24.0
1981-08-30 21:46:32.400 ,2,1,0.,24.0,0.,24.0,0.,24.0,0.,24.0
1981-08-30 21:46:56.400 ,2,0,0.,24.0,0.,24.0,0.,24.0,0.,24.0
1981-08-30 21:47:20.400 ,3,1,0.,24.0,0.,24.0,0.,24.0,0.,24.0
1981-08-30 21:47:44.400 ,4,1,0.,24.0,0.,24.0,0.,24.0,0.,24.0
1981-08-30 21:48:08.400 ,5,1,0.,24.0,0.,24.0,0.,24.0,0.,24.0
1981-08-30 21:48:32.400 ,6,1,0.,24.0,0.,24.0,0.,24.0,0.,24.0
1981-08-30 21:48:56.400 ,7,1,0.,24.0,0.,24.0,0.,24.0,0.,24.0
1981-08-30 21:49:20.400 ,7,1,0.,24.0,0.,24.0,0.,24.0,0.,24.0
1981-08-30 21:49:44.400 ,6,1,0.,24.0,0.,24.0,0.,24.0,0.,24.0
1981-08-30 21:50:08.400 ,5,1,0.,24.0,0.,24.0,0.,24.0,0.,24.0
1981-08-30 21:50:32.400 ,4,1,0.,24.0,0.,24.0,0.,24.0,0.,24.0
1981-08-30 21:50:56.400 ,3,1,0.,24.0,0.,24.0,0.,24.0,0.,24.0
1981-08-30 21:51:20.400 ,2,1,0.,24.0,0.,24.0,0.,24.0,0.,24.0
1981-08-30 21:51:44.400 ,1,1,0.,24.0,0.,24.0,0.,24.0,0.,24.0
1981-08-30 21:52:08.400 ,0,1,0.,24.0,0.,24.0,0.,24.0,0.,24.0
1981-08-30 21:52:32.400 ,0,1,0.,24.0,0.,24.0,0.,24.0,0.,24.0
1981-08-30 21:52:56.400 ,1,1,0.,24.0,0.,24.0,0.,24.0,0.,24.0
1981-08-30 21:53:20.400 ,2,1,0.,24.0,0.,24.0,0.,24.0,0.,24.0
1981-08-30 21:53:44.400 ,3,1,0.,24.0,0.,24.0,0.,24.0,0.,24.0
1981-08-30 21:54:08.400 ,3,0,0.,24.0,0.,24.0,0.,24.0,0.,24.0
1981-08-30 21:54:32.400 ,4,1,0.,24.0,0.,24.0,0.,24.0,0.,24.0
1981-08-30 21:54:56.400 ,4,0,0.,24.0,0.,24.0,0.,24.0,0.,24.0
1981-08-30 21:55:20.400 ,5,1,0.,24.0,0.,24.0,0.,24.0,0.,24.0
1981-08-30 21:55:44.400 ,5,0,0.,24.0,0.,24.0,0.,24.0,0.,24.0
1981-08-30 21:56:08.400 ,6,1,1.,24.0,0.,24.0,0.,24.0,0.,24.0
1981-08-30 21:56:32.400 ,6,0,0.,24.0,0.,24.0,0.,24.0,0.,24.0
1981-08-30 21:56:56.400 ,7,1,0.,24.0,0.,24.0,0.,24.0,0.,24.0
1981-08-30 21:57:20.400 ,7,0,0.,24.0,0.,24.0,0.,24.0,0.,24.0
1981-08-30 21:57:44.400 ,7,1,0.,24.0,0.,24.0,0.,24.0,0.,24.0
1981-08-30 21:58:08.400 ,7,0,0.,24.0,0.,24.0,0.,24.0,0.,24.0
1981-08-30 21:58:32.400 ,6,1,0.,24.0,0.,24.0,0.,24.0,0.,24.0
1981-08-30 21:58:56.400 ,6,0,0.,24.0,0.,24.0,0.,24.0,0.,24.0
1981-08-30 21:59:20.400 ,5,1,0.,24.0,0.,24.0,0.,24.0,0.,24.0
1981-08-30 21:59:44.400 ,5,0,0.,24.0,0.,24.0,0.,24.0,0.,24.0
1981-08-30 22:00:08.400 ,4,1,0.,24.0,0.,24.0,0.,24.0,0.,24.0
1981-08-30 22:00:32.400 ,4,0,0.,24.0,0.,24.0,0.,24.0,0.,24.0
1981-08-30 22:00:56.400 ,3,1,0.,24.0,0.,24.0,0.,24.0,0.,24.0
1981-08-30 22:01:20.400 ,3,0,0.,24.0,0.,24.0,0.,24.0,0.,24.0
1981-08-30 22:01:44.400 ,2,1,0.,24.0,0.,24.0,0.,24.0,0.,24.0
1981-08-30 22:02:08.400 ,2,0,0.,24.0,0.,24.0,0.,24.0,0.,24.0
1981-08-30 22:02:32.400 ,1,1,0.,24.0,0.,24.0,0.,24.0,0.,24.0
1981-08-30 22:02:56.400 ,1,0,0.,24.0,0.,24.0,0.,24.0,0.,24.0
1981-08-30 22:03:20.400 ,0,1,0.,24.0,0.,24.0,0.,24.0,0.,24.0
1981-08-30 22:03:44.400 ,0,0,0.,24.0,0.,24.0,0.,24.0,0.,24.0
1981-08-30 22:04:08.400 ,0,1,0.,24.0,0.,24.0,0.,24.0,0.,24.0
1981-08-30 22:04:32.400 ,0,0,0.,24.0,0.,24.0,0.,24.0,0.,24.0
1981-08-30 22:04:56.400 ,1,1,0.,24.0,0.,24.0,0.,24.0,0.,24.0
1981-08-30 22:05:20.400 ,1,0,0.,24.0,0.,24.0,0.,24.0,0.,24.0
1981-08-30 22:05:44.400 ,2,1,0.,24.0,0.,24.0,0.,24.0,0.,24.0
1981-08-30 22:06:08.400 ,2,0,0.,24.0,0.,24.0,0.,24.0,0.,24.0
1981-08-30 22:06:32.400 ,3,1,0.,24.0,0.,24.0,0.,24.0,0.,24.0
1981-08-30 22:06:56.400 ,4,1,0.,24.0,0.,24.0,0.,24.0,0.,24.0
1981-08-30 22:07:20.400 ,5,1,0.,24.0,0.,24.0,0.,24.0,0.,24.0
1981-08-30 22:07:44.400 ,6,1,0.,24.0,0.,24.0,0.,24.0,0.,24.0
1981-08-30 22:08:08.400 ,7,1,0.,24.0,0.,24.0,0.,24.0,0.,24.0
1981-08-30 22:08:32.400 ,7,1,0.,24.0,0.,24.0,0.,24.0,0.,24.0
1981-08-30 22:08:56.400 ,6,1,0.,24.0,0.,24.0,0.,24.0,0.,24.0
1981-08-30 22:09:20.400 ,5,1,0.,24.0,0.,24.0,0.,24.0,0.,24.0
1981-08-30 22:09:44.400 ,4,1,0.,24.0,0.,24.0,0.,24.0,0.,24.0
1981-08-30 22:10:08.400 ,3,1,0.,24.0,0.,24.0,0.,24.0,0.,24.0
1981-08-30 22:10:32.400 ,2,1,0.,24.0,0.,24.0,0.,24.0,0.,24.0
1981-08-30 22:10:56.400 ,1,1,0.,24.0,0.,24.0,0.,24.0,0.,24.0
1981-08-30 22:11:20.400 ,0,1,0.,24.0,0.,24.0,0.,24.0,0.,24.0
1981-08-30 22:11:44.400 ,0,1,0.,24.0,0.,24.0,0.,24.0,0.,24.0
1981-08-30 22:12:08.400 ,1,1,0.,24.0,0.,24.0,0.,24.0,0.,24.0
1981-08-30 22:12:32.400 ,2,1,0.,24.0,0.,24.0,0.,24.0,0.,24.0
1981-08-30 22:12:56.400 ,3,1,0.,24.0,0.,24.0,0.,24.0,0.,24.0
1981-08-30 22:13:20.400 ,3,0,0.,24.0,0.,24.0,0.,24.0,0.,24.0
1981-08-30 22:13:44.400 ,4,1,0.,24.0,0.,24.0,0.,24.0,0.,24.0
1981-08-30 22:14:08.400 ,4,0,0.,24.0,0.,24.0,0.,24.0,0.,24.0
1981-08-30 22:14:32.400 ,5,1,0.,24.0,0.,24.0,0.,24.0,0.,24.0
1981-08-30 22:14:56.400 ,5,0,1.,24.0,0.,24.0,0.,24.0,0.,24.0
1981-08-30 22:15:20.400 ,6,1,0.,24.0,0.,24.0,0.,24.0,0.,24.0
1981-08-30 22:15:44.400 ,6,0,0.,24.0,0.,24.0,0.,24.0,0.,24.0
1981-08-30 22:16:08.400 ,7,1,0.,24.0,0.,24.0,0.,24.0,0.,24.0
1981-08-30 22:16:32.400 ,7,0,0.,24.0,0.,24.0,0.,24.0,0.,24.0
1981-08-30 22:16:56.400 ,7,1,0.,24.0,0.,24.0,0.,24.0,0.,24.0
1981-08-30 22:17:20.400 ,7,0,0.,24.0,0.,24.0,0.,24.0,0.,24.0
1981-08-30 22:17:44.400 ,6,1,0.,24.0,0.,24.0,0.,24.0,0.,24.0
1981-08-30 22:18:08.400 ,6,0,0.,24.0,0.,24.0,0.,24.0,0.,24.0
1981-08-30 22:18:32.400 ,5,1,0.,24.0,0.,24.0,0.,24.0,0.,24.0
1981-08-30 22:18:56.400 ,5,0,0.,24.0,0.,24.0,0.,24.0,0.,24.0
1981-08-30 22:19:20.400 ,4,1,0.,24.0,0.,24.0,0.,24.0,0.,24.0
1981-08-30 22:19:44.400 ,4,0,0.,24.0,0.,24.0,0.,24.0,0.,24.0
1981-08-30 22:20:08.400 ,3,1,0.,24.0,0.,24.0,0.,24.0,0.,24.0
1981-08-30 22:20:32.400 ,3,0,0.,24.0,0.,24.0,0.,24.0,0.,24.0
1981-08-30 22:20:56.400 ,2,1,0.,24.0,0.,24.0,0.,24.0,0.,24.0
1981-08-30 22:21:20.400 ,2,0,0.,24.0,0.,24.0,0.,24.0,0.,24.0
1981-08-30 22:21:44.400 ,1,1,0.,24.0,0.,24.0,0.,24.0,0.,24.0
1981-08-30 22:22:08.400 ,1,0,0.,24.0,0.,24.0,0.,24.0,0.,24.0
1981-08-30 22:24:08.400 ,0,0,0.,24.0,0.,24.0,0.,24.0,0.,24.0
1981-08-30 22:24:32.400 ,0,0,0.,24.0,0.,24.0,0.,24.0,0.,24.0
1981-08-30 22:24:56.400 ,0,0,0.,24.0,0.,24.0,0.,24.0,0.,24.0
1981-08-30 22:25:20.400 ,0,0,0.,24.0,0.,24.0,0.,24.0,0.,24.0
1981-08-30 22:25:20.400 ,0,0,0.,24.0,0.,24.0,0.,24.0,0.,24.0
1981-08-30 22:25:44.400 ,3,1,0.,24.0,0.,24.0,0.,24.0,0.,24.0
1981-08-30 22:26:08.400 ,4,1,0.,24.0,0.,24.0,0.,24.0,0.,24.0
1981-08-30 22:26:32.400 ,5,1,0.,24.0,0.,24.0,0.,24.0,0.,24.0
1981-08-30 22:26:56.400 ,6,1,0.,24.0,0.,24.0,0.,24.0,0.,24.0
1981-08-30 22:27:20.400 ,7,1,0.,24.0,0.,24.0,0.,24.0,0.,24.0
1981-08-30 22:27:44.400 ,7,1,0.,24.0,0.,24.0,0.,24.0,0.,24.0
1981-08-30 22:28:08.400 ,6,1,0.,24.0,0.,24.0,0.,24.0,0.,24.0
1981-08-30 22:28:32.400 ,5,1,0.,24.0,0.,24.0,0.,24.0,0.,24.0
1981-08-30 22:28:56.400 ,4,1,0.,24.0,0.,24.0,0.,24.0,0.,24.0
1981-08-30 22:29:20.400 ,3,1,0.,24.0,0.,24.0,0.,24.0,0.,24.0
1981-08-30 22:29:44.400 ,2,1,0.,24.0,0.,24.0,0.,24.0,0.,24.0
1981-08-30 22:30:08.400 ,1,1,0.,24.0,0.,24.0,0.,24.0,0.,24.0
1981-08-30 22:30:32.400 ,0,1,0.,24.0,0.,24.0,0.,24.0,0.,24.0
1981-08-30 22:30:56.400 ,0,1,1.,24.0,0.,24.0,0.,24.0,0.,24.0
1981-08-30 22:31:20.400 ,1,1,0.,24.0,0.,24.0,0.,24.0,0.,24.0
1981-08-30 22:31:44.400 ,2,1,0.,24.0,0.,24.0,0.,24.0,0.,24.0
1981-08-30 22:32:08.400 ,3,1,0.,24.0,0.,24.0,0.,24.0,0.,24.0
1981-08-30 22:32:32.400 ,3,0,0.,24.0,0.,24.0,0.,24.0,0.,24.0
1981-08-30 22:32:56.400 ,4,1,0.,24.0,0.,24.0,0.,24.0,0.,24.0
1981-08-30 22:33:20.400 ,4,0,0.,24.0,0.,24.0,0.,24.0,0.,24.0
1981-08-30 22:33:44.400 ,0,0,0.,24.0,0.,24.0,0.,24.0,0.,24.0
1981-08-30 22:34:08.400 ,0,0,0.,24.0,0.,24.0,0.,24.0,0.,24.0
1981-08-30 22:34:32.400 ,6,1,0.,24.0,0.,24.0,0.,24.0,0.,24.0
1981-08-30 22:34:56.400 ,6,0,0.,24.0,0.,24.0,0.,24.0,0.,24.0
1981-08-30 22:35:20.400 ,7,1,0.,24.0,0.,24.0,0.,24.0,0.,24.0
1981-08-30 22:35:44.400 ,7,0,0.,24.0,0.,24.0,0.,24.0,0.,24.0
1981-08-30 22:36:08.400 ,7,1,0.,24.0,0.,24.0,0.,24.0,0.,24.0
1981-08-30 22:36:32.400 ,7,0,0.,24.0,0.,24.0,0.,24.0,0.,24.0
1981-08-30 22:36:56.400 ,6,1,0.,24.0,0.,24.0,0.,24.0,0.,24.0
1981-08-30 22:37:20.400 ,6,0,0.,24.0,0.,24.0,0.,24.0,0.,24.0
1981-08-30 22:37:44.400 ,5,1,0.,24.0,0.,24.0,0.,24.0,0.,24.0
1981-08-30 22:38:08.400 ,0,0,0.,24.0,0.,24.0,0.,24.0,0.,24.0
1981-08-30 22:39:25.800 ,0,0,0.,24.0,0.,24.0,0.,24.0,0.,24.0
1981-08-30 22:39:44.400 ,0,0,0.,24.0,0.,24.0,0.,24.0,0.,24.0
1981-08-30 22:40:08.400 ,2,1,0.,24.0,0.,24.0,0.,24.0,0.,24.0
1981-08-30 22:40:32.400 ,2,0,0.,24.0,0.,24.0,0.,24.0,0.,24.0
1981-08-30 22:40:56.400 ,1,1,0.,24.0,0.,24.0,0.,24.0,0.,24.0
1981-08-30 22:41:20.400 ,1,0,0.,24.0,0.,24.0,0.,24.0,0.,24.0
1981-08-30 22:41:44.400 ,0,1,0.,24.0,0.,24.0,0.,24.0,0.,24.0
1981-08-30 22:42:08.400 ,0,0,0.,24.0,0.,24.0,0.,24.0,0.,24.0
1981-08-30 22:42:32.400 ,0,1,0.,24.0,0.,24.0,0.,24.0,0.,24.0
1981-08-30 22:42:56.400 ,0,0,0.,24.0,0.,24.0,0.,24.0,0.,24.0
1981-08-30 22:43:20.400 ,1,1,0.,24.0,0.,24.0,0.,24.0,0.,24.0
1981-08-30 22:43:44.400 ,1,0,0.,24.0,0.,24.0,0.,24.0,0.,24.0
1981-08-30 22:44:08.400 ,2,1,0.,24.0,0.,24.0,0.,24.0,0.,24.0
1981-08-30 22:44:32.400 ,2,0,0.,24.0,0.,24.0,0.,24.0,0.,24.0
1981-08-30 22:44:56.400 ,3,1,0.,24.0,0.,24.0,0.,24.0,0.,24.0
1981-08-30 22:45:20.400 ,4,1,0.,24.0,0.,24.0,0.,24.0,0.,24.0
1981-08-30 22:45:44.400 ,5,1,0.,24.0,0.,24.0,0.,24.0,0.,24.0
1981-08-30 22:46:08.400 ,6,1,0.,24.0,0.,24.0,0.,24.0,0.,24.0
1981-08-30 22:46:32.400 ,7,1,0.,24.0,0.,24.0,0.,24.0,0.,24.0
1981-08-30 22:46:56.400 ,0,0,0.,24.0,0.,24.0,0.,24.0,0.,24.0
1981-08-30 22:47:34.200 ,0,0,,0,,0,,0,,0
1981-08-30 22:47:44.400 ,5,1,0.,24.0,0.,24.0,0.,24.0,0.,24.0
1981-08-30 22:48:08.400 ,4,1,0.,24.0,0.,24.0,0.,24.0,0.,24.0
1981-08-30 22:48:32.400 ,3,1,0.,24.0,0.,24.0,0.,24.0,0.,24.0
1981-08-30 22:48:56.400 ,2,1,1.,24.0,0.,24.0,0.,24.0,0.,24.0
1981-08-30 22:49:20.400 ,1,1,0.,24.0,0.,24.0,0.,24.0,0.,24.0
1981-08-30 22:49:44.400 ,0,1,0.,24.0,0.,24.0,0.,24.0,0.,24.0
1981-08-30 22:50:08.400 ,0,1,0.,24.0,0.,24.0,0.,24.0,0.,24.0
1981-08-30 22:50:32.400 ,1,1,0.,24.0,0.,24.0,0.,24.0,0.,24.0
1981-08-30 22:50:56.400 ,2,1,0.,24.0,0.,24.0,0.,24.0,0.,24.0
1981-08-30 22:51:20.400 ,3,1,0.,24.0,0.,24.0,0.,24.0,0.,24.0
1981-08-30 22:51:44.400 ,3,0,0.,24.0,0.,24.0,0.,24.0,0.,24.0
1981-08-30 22:52:08.400 ,4,1,0.,24.0,0.,24.0,0.,24.0,0.,24.0
1981-08-30 22:52:32.400 ,4,0,0.,24.0,0.,24.0,0.,24.0,0.,24.0
1981-08-30 22:52:56.400 ,5,1,0.,24.0,0.,24.0,0.,24.0,0.,24.0
1981-08-30 22:53:20.400 ,5,0,0.,24.0,0.,24.0,0.,24.0,0.,24.0
1981-08-30 22:53:44.400 ,6,1,0.,24.0,0.,24.0,0.,24.0,0.,24.0
1981-08-30 22:54:08.400 ,6,0,0.,24.0,0.,24.0,0.,24.0,0.,24.0
1981-08-30 22:54:32.400 ,7,1,0.,24.0,0.,24.0,0.,24.0,0.,24.0
1981-08-30 22:54:56.400 ,7,0,0.,24.0,0.,24.0,0.,24.0,0.,24.0
1981-08-30 22:55:20.400 ,7,1,0.,24.0,0.,24.0,0.,24.0,0.,24.0
1981-08-30 22:55:44.400 ,7,0,0.,24.0,0.,24.0,0.,24.0,0.,24.0
1981-08-30 22:56:08.400 ,6,1,0.,24.0,0.,24.0,0.,24.0,0.,24.0
1981-08-30 22:56:32.400 ,0,0,0.,24.0,0.,24.0,0.,24.0,0.,24.0
1981-08-30 22:57:21.000 ,0,0,0.,24.0,0.,24.0,0.,24.0,0.,24.0
1981-08-30 22:57:44.400 ,4,1,0.,24.0,0.,24.0,0.,24.0,0.,24.0
1981-08-30 22:58:08.400 ,4,0,0.,24.0,0.,24.0,0.,24.0,0.,24.0
1981-08-30 22:58:32.400 ,3,1,0.,24.0,0.,24.0,0.,24.0,0.,24.0
1981-08-30 22:58:56.400 ,3,0,0.,24.0,0.,24.0,0.,24.0,0.,24.0
1981-08-30 22:59:20.400 ,2,1,0.,24.0,0.,24.0,0.,24.0,0.,24.0
1981-08-30 22:59:44.400 ,2,0,0.,24.0,0.,24.0,0.,24.0,0.,24.0
1981-08-30 23:00:08.400 ,1,1,0.,24.0,0.,24.0,0.,24.0,0.,24.0
1981-08-30 23:00:32.400 ,1,0,1.,24.0,0.,24.0,0.,24.0,0.,24.0
1981-08-30 23:00:56.400 ,0,1,0.,24.0,0.,24.0,0.,24.0,0.,24.0
1981-08-30 23:01:20.400 ,0,0,0.,24.0,0.,24.0,0.,24.0,0.,24.0
1981-08-30 23:01:44.400 ,0,1,0.,24.0,0.,24.0,0.,24.0,0.,24.0
1981-08-30 23:02:08.400 ,0,0,1.,24.0,0.,24.0,0.,24.0,0.,24.0
1981-08-30 23:02:32.400 ,1,1,0.,24.0,0.,24.0,0.,24.0,0.,24.0
1981-08-30 23:02:56.400 ,1,0,0.,24.0,0.,24.0,0.,24.0,0.,24.0
1981-08-30 23:03:20.400 ,2,1,0.,24.0,0.,24.0,0.,24.0,0.,24.0
1981-08-30 23:03:44.400 ,2,0,0.,24.0,0.,24.0,0.,24.0,0.,24.0
1981-08-30 23:04:08.400 ,3,1,0.,24.0,0.,24.0,0.,24.0,0.,24.0
1981-08-30 23:04:32.400 ,4,1,0.,24.0,0.,24.0,0.,24.0,0.,24.0
1981-08-30 23:04:56.400 ,5,1,0.,24.0,0.,24.0,0.,24.0,0.,24.0
1981-08-30 23:05:20.400 ,6,1,0.,24.0,0.,24.0,0.,24.0,0.,24.0
1981-08-30 23:05:44.400 ,7,1,0.,24.0,0.,24.0,0.,24.0,0.,24.0
1981-08-30 23:06:08.400 ,7,1,1.,24.0,0.,24.0,0.,24.0,0.,24.0
1981-08-30 23:06:32.400 ,6,1,0.,24.0,0.,24.0,0.,24.0,0.,24.0
1981-08-30 23:06:56.400 ,5,1,0.,24.0,0.,24.0,0.,24.0,0.,24.0
1981-08-30 23:07:20.400 ,4,1,0.,24.0,0.,24.0,0.,24.0,0.,24.0
1981-08-30 23:07:44.400 ,3,1,0.,24.0,0.,24.0,0.,24.0,0.,24.0
1981-08-30 23:08:08.400 ,2,1,0.,24.0,0.,24.0,0.,24.0,0.,24.0
1981-08-30 23:08:32.400 ,1,1,0.,24.0,0.,24.0,0.,24.0,0.,24.0
1981-08-30 23:08:56.400 ,0,1,0.,24.0,0.,24.0,0.,24.0,0.,24.0
1981-08-30 23:09:20.400 ,0,1,0.,24.0,0.,24.0,0.,24.0,0.,24.0
1981-08-30 23:09:44.400 ,1,1,0.,24.0,0.,24.0,0.,24.0,0.,24.0
1981-08-30 23:10:08.400 ,2,1,0.,24.0,0.,24.0,0.,24.0,0.,24.0
1981-08-30 23:10:32.400 ,3,1,0.,24.0,0.,24.0,0.,24.0,0.,24.0
1981-08-30 23:10:56.400 ,3,0,1.,24.0,0.,24.0,0.,24.0,0.,24.0
1981-08-30 23:11:20.400 ,4,1,0.,24.0,0.,24.0,0.,24.0,1.,24.0
1981-08-30 23:11:44.400 ,4,0,0.,24.0,0.,24.0,0.,24.0,0.,24.0
1981-08-30 23:12:08.400 ,5,1,0.,24.0,0.,24.0,0.,24.0,0.,24.0
1981-08-30 23:12:32.400 ,5,0,0.,24.0,0.,24.0,0.,24.0,0.,24.0
1981-08-30 23:12:56.400 ,6,1,0.,24.0,0.,24.0,0.,24.0,0.,24.0
1981-08-30 23:13:20.400 ,6,0,0.,24.0,0.,24.0,0.,24.0,0.,24.0
1981-08-30 23:13:44.400 ,7,1,0.,24.0,0.,24.0,0.,24.0,0.,24.0
1981-08-30 23:14:08.400 ,7,0,0.,24.0,0.,24.0,0.,24.0,0.,24.0
1981-08-30 23:14:32.400 ,7,1,0.,24.0,0.,24.0,0.,24.0,0.,24.0
1981-08-30 23:14:56.400 ,7,0,0.,24.0,0.,24.0,0.,24.0,0.,24.0
1981-08-30 23:15:20.400 ,6,1,0.,24.0,0.,24.0,0.,24.0,0.,24.0
1981-08-30 23:15:44.400 ,6,0,0.,24.0,0.,24.0,0.,24.0,0.,24.0
1981-08-30 23:16:08.400 ,5,1,0.,24.0,0.,24.0,0.,24.0,0.,24.0
1981-08-30 23:16:32.400 ,5,0,0.,24.0,0.,24.0,0.,24.0,0.,24.0
1981-08-30 23:16:56.400 ,4,1,0.,24.0,0.,24.0,0.,24.0,0.,24.0
1981-08-30 23:17:20.400 ,4,0,0.,24.0,0.,24.0,0.,24.0,0.,24.0
1981-08-30 23:17:44.400 ,3,1,0.,24.0,0.,24.0,0.,24.0,0.,24.0
1981-08-30 23:18:08.400 ,3,0,0.,24.0,0.,24.0,0.,24.0,0.,24.0
1981-08-30 23:18:32.400 ,2,1,0.,24.0,0.,24.0,0.,24.0,0.,24.0
1981-08-30 23:18:56.400 ,2,0,0.,24.0,0.,24.0,0.,24.0,0.,24.0
1981-08-30 23:19:20.400 ,1,1,0.,24.0,0.,24.0,0.,24.0,0.,24.0
1981-08-30 23:19:44.400 ,1,0,0.,24.0,0.,24.0,0.,24.0,0.,24.0
1981-08-30 23:20:08.400 ,0,1,0.,24.0,0.,24.0,0.,24.0,0.,24.0
1981-08-30 23:20:32.400 ,0,0,0.,24.0,0.,24.0,0.,24.0,0.,24.0
1981-08-30 23:20:56.400 ,0,1,0.,24.0,0.,24.0,0.,24.0,0.,24.0
1981-08-30 23:21:20.400 ,0,0,0.,24.0,0.,24.0,0.,24.0,0.,24.0
1981-08-30 23:21:44.400 ,1,1,0.,24.0,0.,24.0,0.,24.0,0.,24.0
1981-08-30 23:22:08.400 ,1,0,0.,24.0,0.,24.0,0.,24.0,0.,24.0
1981-08-30 23:22:32.400 ,2,1,0.,24.0,0.,24.0,0.,24.0,0.,24.0
1981-08-30 23:22:56.400 ,2,0,0.,24.0,0.,24.0,0.,24.0,0.,24.0
1981-08-30 23:23:20.400 ,3,1,0.,24.0,0.,24.0,0.,24.0,0.,24.0
1981-08-30 23:23:44.400 ,0,0,0.,24.0,0.,24.0,0.,24.0,0.,24.0
1981-08-30 23:54:14.390 ,0,0,0.,24.0,0.,24.0,0.,24.0,0.,24.0
1981-08-30 23:54:32.390 ,3,0,,0,,0,,0,,0
1981-08-30 23:54:56.390 ,3,0,0.,24.0,0.,24.0,0.,24.0,0.,24.0
1981-08-30 23:55:20.390 ,4,1,0.,24.0,0.,24.0,0.,24.0,0.,24.0
1981-08-30 23:55:44.390 ,4,0,0.,24.0,0.,24.0,0.,24.0,0.,24.0
1981-08-30 23:56:08.390 ,5,1,0.,24.0,0.,24.0,0.,24.0,0.,24.0
1981-08-30 23:56:32.390 ,5,0,0.,24.0,0.,24.0,0.,24.0,0.,24.0
1981-08-30 23:56:56.390 ,6,1,0.,24.0,0.,24.0,0.,24.0,0.,24.0
1981-08-30 23:57:20.390 ,6,0,0.,24.0,0.,24.0,0.,24.0,0.,24.0
1981-08-30 23:57:44.390 ,7,1,0.,24.0,0.,24.0,0.,24.0,0.,24.0
1981-08-30 23:58:08.390 ,7,0,0.,24.0,0.,24.0,0.,24.0,0.,24.0
1981-08-30 23:58:32.390 ,7,1,0.,24.0,0.,24.0,0.,24.0,0.,24.0
1981-08-30 23:58:56.390 ,7,0,0.,24.0,0.,24.0,0.,24.0,0.,24.0
1981-08-30 23:59:20.390 ,6,1,0.,24.0,0.,24.0,0.,24.0,0.,24.0
1981-08-30 23:59:44.390 ,6,0,0.,24.0,0.,24.0,0.,24.0,0.,24.0
1981-08-31 00:00:08.390 ,5,1,0.,24.0,0.,24.0,0.,24.0,0.,24.0
